Location: Unspecified
(0.0000°N, 0.0000°E)
Time: 12:36:47
(UTC-04:00)

Hubble Space Telescope - Pass Details

Date: 01 October 2021
Orbit: 535 x 539 km, 28.5° (Epoch: 24 October)

Event Time Altitude Azimuth Distance (km) Brightness Sun altitude
Exits shadow 00:51:47 18° 236° (SW) 1,336 2.3 -14.5°
Maximum altitude 00:54:45 81° 151° (SSE) 542 0.8 -13.7°
Drops below altitude 10° 00:58:52 10° 62° (ENE) 1,777 4.4 -12.7°
Sets 01:01:07 0° 61° (ENE) 2,665 5.4 -12.1°
